Theta_e
315 319 319 326 325 323 327 328 329 344 343 341 340 343 343 342 346 344 349 347 339 333 336 339 342 341 340 339 336 331 319 320 321 323 324 324 323 323 322 323 324 324 324 325 327 330 330 330 331
313 316 319 326 324 326 325 327 329 332 341 340 341 345 343 343 349 350 350 346 337 328 335 338 340 340 340 339 338 333 322 319 322 325 324 323 323 322 322 322 322 323 323 323 323 323 323 323 323
312 313 323 321 321 326 326 328 331 340 337 341 344 345 343 350 350 349 349 340 332 329 332 333 338 339 339 339 339 334 324 319 322 325 324 323 323 322 322 322 322 322 322 321 321 321 322 322 322
311 314 321 321 324 324 326 328 337 340 342 342 342 344 343 349 350 350 346 336 329 329 331 331 336 339 340 340 339 334 325 319 321 324 323 323 323 323 323 322 322 322 322 322 321 321 321 321 321
311 316 318 321 323 323 326 327 329 337 338 339 343 347 348 348 348 349 339 332 328 330 330 329 333 337 339 340 338 333 325 319 320 322 323 323 323 323 322 322 322 322 322 322 322 321 321 321 321
314 315 317 322 323 325 326 328 328 329 331 346 349 349 348 349 346 344 334 331 330 330 328 328 332 334 338 338 334 329 325 320 319 322 322 323 323 323 322 322 322 322 322 322 322 322 322 321 322
311 308 314 319 322 324 325 327 327 327 332 346 346 351 348 347 347 342 333 332 333 331 327 326 330 332 333 330 328 325 323 320 318 321 322 323 323 323 323 323 322 322 322 321 321 321 322 322 322
313 309 312 313 318 319 322 325 326 329 338 346 343 343 346 348 345 338 332 333 334 331 326 325 327 328 327 325 323 322 322 319 318 320 321 323 323 322 322 321 321 322 321 321 321 320 320 321 321
315 308 310 313 315 318 320 319 326 344 346 348 349 342 340 342 345 340 333 336 334 330 325 324 324 323 321 321 321 322 321 319 319 320 321 322 322 322 320 320 321 324 324 321 320 321 321 329 330
314 312 311 313 314 316 318 319 322 339 351 351 349 346 348 348 344 343 341 340 336 331 326 325 324 322 320 320 321 321 319 319 320 320 321 321 320 321 328 328 330 338 337 335 333 329 332 332 334
315 315 313 314 315 316 316 318 320 334 347 350 348 347 348 346 344 343 343 343 341 332 328 327 326 324 321 320 321 321 319 319 319 320 320 321 323 333 337 338 341 342 341 339 338 337 335 336 336
315 317 316 316 317 317 316 317 318 320 322 334 346 344 346 346 345 345 344 343 345 339 329 329 329 329 327 325 323 322 322 322 323 324 326 329 337 340 339 341 343 342 340 340 338 337 337 338 337
316 315 316 317 317 318 318 318 318 319 320 333 346 345 345 344 345 345 344 344 345 344 331 329 331 331 331 331 331 331 332 332 333 334 332 331 340 342 344 344 342 342 341 340 339 340 342 343 342
317 316 316 317 316 317 316 317 318 319 320 337 345 342 340 338 340 346 346 346 346 343 331 330 332 334 334 334 337 334 341 342 344 347 344 337 340 343 345 345 343 343 346 348 349 347 346 344 343
318 317 316 314 316 314 317 316 317 319 320 337 346 344 341 339 337 342 346 346 346 345 343 332 334 335 341 345 344 339 347 348 348 349 348 348 344 344 346 346 343 345 349 349 349 349 350 347 344
319 316 317 314 314 315 316 316 317 319 320 337 344 344 344 341 342 349 346 345 345 345 345 342 340 341 345 346 346 348 349 349 349 348 349 349 347 344 339 343 344 345 350 349 349 349 350 348 347
318 318 315 315 313 315 315 316 317 319 320 342 345 344 344 344 343 349 349 349 346 345 344 345 344 345 352 347 348 350 351 350 350 349 348 347 346 345 347 350 349 350 349 350 350 349 347 347 344
321 317 317 314 315 315 314 315 315 318 320 338 346 342 341 342 341 341 344 344 348 348 348 345 345 347 352 351 349 350 349 349 347 347 346 345 347 350 350 351 350 346 347 346 347 345 341 332 323
321 318 316 316 314 315 314 315 315 316 319 335 343 335 332 334 339 335 334 333 348 346 341 346 349 346 351 351 349 348 348 348 346 345 344 343 345 350 351 348 350 347 342 343 339 329 319 314 313
321 321 317 316 315 314 315 316 316 317 319 327 336 339 339 338 337 335 338 340 343 340 338 338 341 348 346 349 350 348 348 346 343 342 344 347 347 352 350 347 343 341 337 327 319 314 313 313 310
320 320 317 316 316 315 316 315 316 320 336 336 337 338 340 339 338 338 339 340 338 343 341 340 341 346 340 341 346 343 346 340 342 345 348 351 352 348 339 336 332 324 315 313 314 314 314 310 307
320 319 318 317 316 315 315 315 316 318 336 338 336 338 341 339 338 337 337 337 338 338 336 335 336 336 346 341 340 342 346 342 344 348 351 348 340 334 329 322 315 313 314 315 315 315 312 307 307
320 317 316 317 315 318 317 315 315 317 337 339 335 338 339 339 341 341 340 340 338 336 338 336 335 336 337 342 341 340 345 346 348 349 344 337 328 322 314 313 315 315 316 316 316 314 311 309 308
318 318 317 317 315 318 317 316 315 317 318 336 336 337 338 339 338 338 338 339 338 338 338 335 337 335 336 341 338 345 347 347 347 344 334 325 318 314 315 316 316 317 317 316 316 314 314 311 310
316 317 319 319 320 320 318 320 318 318 321 332 333 335 337 336 334 334 335 335 334 335 335 335 333 332 339 347 344 342 343 341 345 337 327 319 316 316 316 317 317 317 317 316 316 315 314 313 313
315 317 320 322 322 320 320 322 320 319 321 328 332 333 333 335 333 332 333 337 337 337 340 331 333 333 336 342 342 341 341 343 339 328 322 321 321 319 319 317 317 317 317 316 316 315 314 314 313
318 319 317 321 322 319 320 321 321 320 321 331 331 331 330 333 333 334 338 331 335 339 338 332 331 331 340 342 342 341 339 332 328 323 322 323 322 321 319 318 318 318 317 316 316 315 314 313 311
315 317 319 319 324 324 322 322 321 320 320 324 330 330 330 331 334 335 338 333 329 334 336 337 340 338 345 343 341 337 329 327 327 327 325 324 323 320 318 318 318 317 316 315 314 313 311 307 306
314 316 319 321 323 325 326 322 317 318 318 322 330 330 330 331 333 333 334 338 339 338 339 339 339 339 340 341 341 334 326 325 326 325 324 323 321 318 318 318 317 316 314 312 308 305 305 307 308
315 316 317 321 325 321 326 325 321 320 318 324 329 330 331 332 332 332 333 336 339 339 340 339 339 338 337 336 330 327 326 324 324 323 323 321 318 318 318 317 315 313 308 304 305 307 307 308 309
Wind_Speed
16 12 9 7 2 4 3 6 4 3 9 5 7 5 4 2 5 3 18 41 36 35 35 33 32 30 27 24 22 21 22 25 25 24 22 22 20 19 17 15 14 13 12 11 10 10 9 8 8
14 12 7 3 3 3 6 6 11 10 18 12 3 8 2 3 2 15 41 36 36 36 35 33 32 31 28 25 23 21 22 24 24 22 21 20 19 18 16 14 12 11 11 10 9 8 7 6 5
11 8 3 4 5 7 6 6 7 10 26 5 4 5 2 7 15 27 33 45 38 36 34 32 32 30 29 26 23 21 21 23 24 22 20 19 18 17 15 13 11 10 9 8 8 7 6 6 5
4 5 5 3 9 8 9 3 4 3 5 7 6 5 6 8 24 21 36 42 37 36 33 32 32 30 28 26 23 21 20 23 23 22 19 18 17 15 13 12 10 9 8 7 7 6 5 5 5
8 3 2 4 10 7 8 14 13 6 3 9 15 6 5 5 14 28 38 40 38 36 33 32 32 31 29 26 23 21 20 22 22 21 19 17 16 14 12 10 9 8 6 5 5 4 4 4 5
5 4 2 12 7 14 13 19 14 12 19 14 14 12 11 12 22 29 37 37 35 36 34 32 31 31 29 27 25 22 20 21 23 21 18 16 14 12 11 9 8 6 5 4 3 2 3 4 5
6 4 6 5 14 16 13 10 10 12 11 9 25 7 13 2 20 27 32 32 32 31 33 33 32 31 29 27 25 24 22 22 22 21 18 16 13 11 8 6 6 4 3 2 2 3 4 5 6
8 3 5 7 10 16 5 11 6 14 5 18 22 6 13 18 19 24 31 31 32 32 32 33 33 31 29 27 26 24 23 22 22 20 18 15 12 10 7 5 3 2 0 1 2 3 5 6 6
14 3 8 12 14 10 9 2 6 9 19 5 13 21 36 35 31 29 30 28 30 30 30 32 32 30 29 28 26 24 22 21 21 20 17 14 11 8 6 5 2 2 3 3 3 4 5 6 5
7 7 9 2 6 3 14 4 7 1 6 5 7 41 38 44 42 38 34 34 33 33 33 31 30 29 29 28 27 25 24 22 21 19 15 12 9 7 5 6 4 4 7 7 6 5 5 6 6
8 10 18 2 13 18 16 11 10 3 2 15 24 42 44 44 41 41 36 33 34 34 33 32 30 29 28 27 26 25 23 21 20 17 15 13 12 10 7 8 5 2 1 4 5 6 8 9 10
6 9 12 5 18 20 13 9 5 14 17 14 37 50 45 44 46 42 43 41 38 34 33 32 31 30 28 26 25 24 23 21 18 15 14 14 12 10 7 4 1 1 2 3 6 6 7 10 12
11 6 7 14 23 29 28 22 7 23 22 15 39 43 46 41 37 31 40 47 39 34 38 35 33 32 30 27 24 22 19 16 14 12 11 12 11 7 4 1 4 7 8 9 8 9 11 12 15
2 10 21 23 20 25 16 14 5 27 16 22 39 44 47 41 34 18 27 42 39 33 35 35 35 32 28 24 20 20 19 18 17 14 9 9 9 8 8 7 7 6 4 6 7 10 13 16 18
17 6 6 12 23 11 11 11 19 25 17 23 39 49 45 37 27 14 23 39 39 31 26 33 34 32 30 23 16 22 19 19 15 12 8 7 6 11 8 7 9 7 6 6 8 11 16 17 18
3 3 2 5 9 11 9 15 20 15 12 21 36 31 29 22 26 13 15 32 37 35 33 33 32 34 28 24 21 19 16 16 15 14 9 6 3 8 10 7 8 12 7 9 11 16 19 21 23
4 4 5 4 6 5 10 10 11 17 14 17 28 36 39 30 23 19 13 9 26 36 33 33 32 33 26 28 22 17 17 18 18 15 12 6 4 7 8 8 9 12 12 13 16 18 19 19 19
4 4 3 5 2 6 11 17 5 10 11 17 29 26 34 35 35 20 11 9 18 24 19 23 34 34 30 27 27 25 25 20 15 13 11 11 11 11 10 10 9 11 11 12 12 14 14 16 18
6 2 2 3 6 4 9 12 8 10 10 16 20 21 22 26 32 20 16 27 38 34 26 20 28 41 37 34 30 32 27 25 20 17 16 18 16 12 12 11 12 14 13 8 8 11 15 19 23
10 7 4 4 9 5 11 14 4 5 6 12 27 25 28 25 24 26 31 45 43 32 43 40 26 43 39 34 33 27 25 22 21 20 18 20 19 15 12 13 12 7 4 6 9 13 17 20 23
11 7 3 5 7 3 6 7 5 1 7 11 21 30 31 36 35 32 30 38 38 31 23 25 23 19 25 32 30 20 22 26 25 22 26 23 20 15 8 7 4 1 3 7 12 15 19 21 19
12 6 6 5 4 3 7 4 4 4 4 4 14 29 33 35 30 24 22 27 31 36 33 32 19 34 26 31 31 32 30 31 29 32 26 18 13 13 11 7 4 2 6 9 12 16 20 21 20
3 5 4 4 4 3 4 2 8 9 3 8 8 20 33 34 31 28 28 27 27 29 25 25 27 35 34 32 30 31 33 35 30 23 18 17 17 12 9 6 4 3 6 10 15 19 22 21 19
1 2 1 1 4 2 6 5 5 6 9 5 11 20 31 37 34 29 26 28 27 28 31 14 24 18 31 32 39 38 37 32 26 22 22 21 16 12 8 5 1 6 10 14 17 20 22 23 22
4 5 0 1 1 6 6 2 8 5 10 15 19 27 35 36 36 33 34 31 23 21 34 17 18 43 21 30 33 34 30 27 24 24 24 19 14 10 6 2 5 9 13 16 17 19 21 23 23
5 6 5 6 5 5 5 5 9 6 4 13 30 39 38 41 40 36 33 29 31 29 35 35 29 36 25 29 30 25 25 23 25 23 18 16 11 6 3 2 7 10 12 14 16 20 22 22 25
4 5 5 5 2 3 4 7 8 7 3 7 15 20 33 43 44 40 34 31 33 35 35 28 27 31 38 32 27 24 24 24 23 22 18 16 11 6 1 4 7 11 15 17 20 22 23 24 25
3 7 5 4 2 3 4 4 8 6 12 8 10 20 21 29 39 38 40 38 34 37 31 30 32 33 34 30 28 27 25 22 22 22 20 14 9 6 6 7 10 14 17 19 21 23 25 25 24
3 4 5 4 3 1 2 6 7 11 10 12 18 30 28 32 42 40 37 38 32 27 28 25 28 25 25 24 23 25 26 25 26 25 20 13 10 10 9 11 13 16 19 22 23 24 23 22 21
5 8 7 4 4 5 2 6 4 8 15 9 25 34 39 38 34 33 25 26 29 28 26 27 25 26 31 31 33 32 30 27 24 20 15 12 11 10 11 13 16 18 22 23 20 20 20 20 21
Wind_Direction
238 246 275 298 69 70 240 243 237 261 323 176 124 94 162 352 226 219 148 162 167 167 162 164 166 164 159 152 145 140 141 143 142 140 138 136 132 128 126 125 121 120 121 119 116 114 109 107 104
237 242 264 222 141 163 247 209 262 228 229 284 98 80 123 123 328 151 153 163 167 166 163 165 167 165 161 156 151 145 143 146 145 141 139 136 131 130 128 125 122 122 120 115 111 107 102 95 87
235 235 211 170 190 199 221 184 224 267 229 300 115 116 95 124 113 149 159 164 166 163 164 165 168 166 164 161 156 148 146 149 149 147 145 138 136 132 129 128 129 124 115 107 100 93 87 79 70
194 192 244 164 233 240 205 153 273 344 270 246 342 22 57 101 144 176 162 162 165 161 163 166 167 169 167 164 158 154 151 154 156 152 149 144 140 136 137 137 129 120 109 100 91 84 76 65 52
184 182 228 215 245 244 237 229 234 251 188 198 136 44 46 88 166 165 163 163 166 160 163 166 168 170 170 165 162 161 157 158 159 158 153 149 146 144 142 139 134 124 115 104 87 73 59 43 32
187 187 155 224 238 251 251 239 228 227 249 167 104 93 46 139 158 161 167 165 167 162 163 167 170 171 171 168 167 166 163 161 164 163 158 156 153 149 149 145 135 127 120 107 88 49 35 23 12
164 113 203 204 231 258 242 237 216 223 212 203 139 103 111 156 156 163 170 168 166 167 165 167 170 172 173 172 171 170 168 166 168 166 165 164 159 158 157 153 143 133 117 91 40 11 358 359 356
201 115 217 216 226 254 245 254 263 295 234 159 161 173 138 198 164 171 171 173 173 171 170 169 171 172 174 175 174 173 170 169 169 170 172 170 170 168 168 170 159 139 87 350 358 341 340 343 336
197 185 219 215 206 224 301 301 58 10 131 155 174 176 176 170 177 172 174 178 180 176 174 174 173 173 175 176 174 173 171 171 173 176 178 177 179 183 187 182 158 69 11 345 352 329 333 345 348
185 203 225 168 245 274 281 305 341 311 114 29 129 156 170 163 175 176 177 181 185 182 177 178 175 173 175 177 176 174 174 175 177 181 181 179 185 186 176 145 113 95 54 45 24 22 356 342 343
207 225 232 192 256 266 278 295 349 287 200 175 173 160 168 164 176 183 186 189 188 186 182 180 179 176 178 178 176 176 175 177 180 182 179 181 183 179 160 138 117 71 18 16 2 12 14 360 338
258 244 246 298 285 280 263 327 336 285 282 233 184 174 177 172 183 187 190 192 189 190 190 187 183 182 180 179 177 175 176 176 179 178 179 179 178 185 173 161 122 352 285 337 6 347 329 316 316
246 265 267 241 252 266 279 271 267 278 283 236 179 174 179 187 187 194 198 195 192 190 192 189 189 189 184 182 179 180 175 177 179 182 186 193 193 180 197 262 285 286 297 314 325 321 324 315 304
328 240 248 255 257 263 263 284 239 264 280 214 186 189 188 195 197 186 196 193 192 189 192 192 192 194 187 182 183 181 167 161 158 151 157 174 188 194 215 219 257 265 315 326 319 294 290 285 283
265 243 259 239 244 249 274 282 245 254 270 198 195 195 191 199 205 225 195 200 196 196 193 195 194 193 181 178 182 177 165 162 164 155 154 155 173 211 227 239 253 253 252 273 280 278 279 285 288
288 143 232 251 199 246 175 257 261 245 253 194 192 196 202 194 189 184 165 201 199 199 195 186 194 193 188 194 182 177 183 179 179 181 179 185 233 232 236 245 239 231 237 277 274 278 287 295 299
252 218 199 304 184 214 182 250 272 250 243 174 181 184 187 186 182 173 159 163 199 196 197 193 194 189 191 185 197 185 177 172 169 170 180 188 220 203 205 225 230 239 257 264 278 287 298 303 307
210 191 185 185 164 195 259 249 343 274 239 168 186 177 180 189 190 198 195 248 185 161 176 196 203 187 187 182 185 178 189 184 178 167 183 201 215 201 220 246 261 275 276 287 293 303 309 316 319
311 256 211 220 252 184 250 265 244 273 254 158 168 165 159 178 193 201 215 237 216 213 268 213 240 195 194 190 194 196 191 187 182 190 197 216 224 218 225 240 262 282 293 304 319 324 329 328 328
249 273 288 288 247 169 259 269 201 258 253 185 155 158 175 186 193 203 194 208 210 203 224 220 270 200 207 203 202 197 188 183 192 193 204 215 218 222 240 255 268 269 318 326 327 331 339 342 339
233 234 238 217 343 241 265 275 201 200 92 125 144 160 165 175 183 191 193 194 194 188 193 224 266 280 234 207 205 203 201 188 191 197 204 205 217 229 221 182 169 168 338 346 351 345 345 345 346
228 209 244 269 23 231 168 265 230 172 100 104 137 154 168 175 178 189 195 203 209 215 240 244 273 276 258 198 193 198 199 195 194 199 197 195 200 180 164 145 126 61 15 357 350 353 352 351 347
271 189 225 247 219 323 288 109 250 124 128 173 172 169 176 192 200 206 213 214 213 206 237 220 250 253 228 200 192 200 202 202 192 188 190 183 167 157 141 130 97 38 7 359 355 350 348 349 343
166 8 54 68 134 217 236 149 262 179 182 169 181 180 178 185 185 193 197 212 220 222 221 216 217 230 177 209 213 201 200 200 190 181 179 164 158 145 128 111 61 13 3 356 351 347 343 341 338
94 84 20 84 118 216 158 121 240 256 165 175 188 191 192 192 189 184 185 181 178 176 198 194 172 165 233 191 208 202 200 196 192 176 174 161 150 132 144 97 13 1 349 347 343 336 331 331 327
164 157 157 168 180 248 136 209 247 220 102 181 187 187 187 191 187 181 175 175 172 151 158 169 142 145 184 209 212 201 204 190 170 171 162 148 151 148 138 352 346 340 334 330 322 323 320 317 313
140 142 172 100 261 64 220 265 317 247 244 132 175 172 183 185 186 179 175 172 169 171 173 185 197 171 181 198 203 184 165 163 162 158 153 162 167 163 219 308 318 316 315 315 316 313 312 310 311
157 162 66 23 118 242 262 245 236 224 231 164 180 195 205 189 178 173 176 179 173 175 181 187 179 179 190 191 167 158 159 166 168 164 167 173 171 200 257 291 296 301 305 309 308 309 309 308 312
113 79 40 100 133 264 322 260 217 220 226 166 195 195 187 195 185 184 186 183 190 181 188 188 188 183 183 177 169 168 164 161 157 162 167 184 206 238 263 276 292 303 304 307 310 310 309 310 313
145 150 160 131 204 208 180 275 323 279 217 169 183 186 191 188 189 181 191 198 187 187 186 178 182 175 161 160 160 164 163 160 159 168 178 196 224 251 275 292 300 302 308 310 315 315 313 314 318